Location: NJAA Observatory
(40.6819°N, 74.8979°W)
Time: 20:45:31
(UTC-05:00)

Iridium 56 - Visible Passes

Search period start: 21 February 2017 00:00
Search period end: 03 March 2017 00:00
Orbit: 776 x 779 km, 86.4° (Epoch: 21 February)

Date Brightness Start Highest point End Pass type
(mag) Time Alt. Az. Time Alt. Az. Time Alt. Az.
21 Feb 8.2 03:01:19 10° NNE 03:02:28 14° NE 03:02:28 14° NE visible
21 Feb 7.1 04:41:02 10° NNW 04:42:53 22° NNW 04:42:53 22° NNW visible
22 Feb 7.4 04:07:20 10° N 04:08:52 20° N 04:08:52 20° N visible
23 Feb 7.8 03:33:56 10° N 03:35:00 16° NNE 03:35:00 16° NNE visible
24 Feb 8.3 03:00:53 10° NNE 03:01:12 11° NNE 03:01:12 11° NNE visible
24 Feb 7.8 04:41:25 10° NNW 04:41:38 11° NNW 04:41:38 11° NNW visible
25 Feb 7.9 04:07:31 10° N 04:07:55 12° N 04:07:55 12° N visible
26 Feb 8.1 03:33:57 10° N 03:34:14 12° N 03:34:14 12° N visible
